sat.trackr.live / text

‹ back to catalog

STARLINK-30168

NORAD 57513 · 2023-113U

PAYLOAD ACTIVE UNKNOWN

§ Identity

Operator
Country
US
Launch date
2023-08-07
Launch site
AFETR
Launch vehicle
Mass (kg)
RCS (m²)

Purposes: comms

External: N2YO · Heavens-Above · Gunter

§ Orbital elements

Epoch: 2026-05-25T03:51:44.506656Z

Period
94.27 min
Inclination
43.0035°
Eccentricity
0.0001400
Mean motion
15.27574216 rev/d
Perigee alt
482.1 km
Apogee alt
484.0 km
Semi-major
6,861.2 km
B*
2.1177e-5
RAAN
303.9060°
Arg perigee
280.6716°
Mean anomaly
79.3978°
Rev number
15,521

§ Raw data

STARLINK-301681 57513U 23113U   26145.16093179  .00000321  00000+0  21177-4 0  99922 57513  43.0035 303.9060 0001400 280.6716  79.3978 15.27574216155211

JSON: /api/v1/satellites/57513 · /tle

For live sub-satellite position, see the globe view (requires WebGL).

§ Visibility from observer

Set your observer location to see the next 7 days of passes ≥ 10°. The values pass through the URL so the page stays shareable.

No JS? Fill the form by hand. The geolocation button needs JavaScript.